BULGARIASAT-1

Last updated on Sun Jun 21 2026 00:03:07 GMT+0000 (Coordinated Universal Time)

1 42801U 17038A 26171.24980350 .00000006 00000+0 00000+0 0 9996 2 42801 0.0130 56.6185 0003251 40.0092 263.6515 1.00273622 32879
UTC large
Height (km)
Speed (km/s)
/
Latitude / Longitude
Inclination (degrees)
Orbital Period (minutes)
Azimuth
Elevation
Range (km)
Doppler Factor

Next 0 passes for location: London (51.5072 / 0.1276)

No passes found over London.
BULGARIASAT-1